| time (UTC) | temp C | wind direction | speed KPH | gust KPH | rain 1hr cm | rain 24hr cm | rain mn cm | humidity % | barometer mb |
| 20260504214903 | 22 | 207 | 8.0 | 17.7 | 0.00 | 0.00 | 0.00 | 1006.8 | |
| 20260504214403 | 22 | 204 | 8.0 | 17.7 | 0.00 | 0.00 | 0.00 | 1007.1 | |
| 20260504213903 | 22 | 216 | 4.8 | 17.7 | 0.00 | 0.00 | 0.00 | 1007.5 | |
| 20260504213403 | 22 | 202 | 4.8 | 17.7 | 0.00 | 0.00 | 0.00 | 1006.8 | |
| 20260504212903 | 22 | 197 | 6.4 | 16.1 | 0.00 | 0.00 | 0.00 | 1006.8 | |
| 20260504212404 | 21 | 237 | 6.4 | 16.1 | 0.00 | 0.00 | 0.00 | 1007.1 | |
| 20260504211903 | 21 | 227 | 8.0 | 17.7 | 0.00 | 0.00 | 0.00 | 1007.1 | |
| 20260504211403 | 21 | 202 | 4.8 | 17.7 | 0.00 | 0.00 | 0.00 | 1006.1 | |
| 20260504210903 | 21 | 195 | 4.8 | 11.3 | 0.00 | 0.00 | 0.00 | 1006.5 | |
| 20260504210403 | 21 | 203 | 4.8 | 11.3 | 0.00 | 0.00 | 0.00 | 1007.5 | |
| 20260504205903 | 21 | 217 | 3.2 | 12.9 | 0.00 | 0.00 | 0.00 | 1007.1 | |
| 20260504205425 | 20 | 197 | 6.4 | 12.9 | 0.00 | 0.00 | 0.00 | 1006.8 | |
| 20260504204903 | 20 | 199 | 4.8 | 16.1 | 0.00 | 0.00 | 0.00 | 1007.1 | |
| 20260504204403 | 20 | 187 | 1.6 | 19.3 | 0.00 | 0.00 | 0.00 | 1007.8 | |
| 20260504203903 | 20 | 235 | 8.0 | 17.7 | 0.00 | 0.00 | 0.00 | 1007.8 | |
| 20260504203403 | 20 | 245 | 3.2 | 14.5 | 0.00 | 0.00 | 0.00 | 1007.8 | |
| 20260504202945 | 20 | 227 | 4.8 | 14.5 | 0.00 | 0.00 | 0.00 | 1008.2 | |
| 20260504202403 | 20 | 192 | 6.4 | 22.5 | 0.00 | 0.00 | 0.00 | 1008.2 | |
| 20260504201924 | 20 | 217 | 6.4 | 22.5 | 0.00 | 0.00 | 0.00 | 1007.8 | |
| 20260504201403 | 20 | 205 | 4.8 | 9.7 | 0.00 | 0.00 | 0.00 | 1008.2 | |
| 20260504200903 | 20 | 201 | 4.8 | 9.7 | 0.00 | 0.00 | 0.00 | 1008.2 | |
| 20260504200403 | 20 | 190 | 3.2 | 14.5 | 0.00 | 0.00 | 0.00 | 1008.2 | |
| 20260504195903 | 20 | 213 | 8.0 | 14.5 | 0.00 | 0.00 | 0.00 | 1007.8 | |
| 20260504195403 | 20 | 185 | 4.8 | 12.9 | 0.00 | 0.00 | 0.00 | 1008.2 | |
| 20260504194903 | 20 | 226 | 6.4 | 12.9 | 0.00 | 0.00 | 0.00 | 1007.5 | |
| 20260504194403 | 19 | 196 | 4.8 | 11.3 | 0.00 | 0.00 | 0.00 | 1007.8 | |
| 20260504193924 | 19 | 180 | 6.4 | 11.3 | 0.00 | 0.00 | 0.00 | 1007.8 | |
| 20260504193403 | 19 | 199 | 3.2 | 11.3 | 0.00 | 0.00 | 0.00 | 1008.2 | |
| 20260504192924 | 19 | 205 | 6.4 | 14.5 | 0.00 | 0.00 | 0.00 | 1008.5 | |
| 20260504192403 | 19 | 190 | 4.8 | 14.5 | 0.00 | 0.00 | 0.00 | 1008.8 | |
| 20260504191903 | 20 | 194 | 6.4 | 14.5 | 0.00 | 0.00 | 0.00 | 1009.5 | |
| 20260504191403 | 20 | 200 | 4.8 | 25.7 | 0.00 | 0.00 | 0.00 | 1008.8 | |
| 20260504190924 | 20 | 208 | 9.7 | 25.7 | 0.00 | 0.00 | 0.00 | 1008.8 | |
| 20260504190404 | 20 | 193 | 8.0 | 25.7 | 0.00 | 0.00 | 0.00 | 1008.8 | |
| 20260504185903 | 20 | 209 | 9.7 | 16.1 | 0.00 | 0.00 | 0.00 | 1008.5 | |
| 20260504185403 | 21 | 219 | 8.0 | 19.3 | 0.00 | 0.00 | 0.00 | 1008.5 | |
| 20260504184903 | 21 | 203 | 4.8 | 20.9 | 0.00 | 0.00 | 0.00 | 1009.2 | |
| 20260504184403 | 21 | 220 | 4.8 | 20.9 | 0.00 | 0.00 | 0.00 | 1008.5 | |
| 20260504183903 | 21 | 212 | 6.4 | 16.1 | 0.00 | 0.00 | 0.00 | 1008.5 | |
| 20260504183403 | 21 | 192 | 3.2 | 17.7 | 0.00 | 0.00 | 0.00 | 1008.5 | |
| 20260504182903 | 21 | 214 | 6.4 | 19.3 | 0.00 | 0.00 | 0.00 | 1008.5 | |
| 20260504182404 | 21 | 221 | 6.4 | 19.3 | 0.00 | 0.00 | 0.00 | 1008.5 | |
| 20260504181925 | 21 | 205 | 8.0 | 17.7 | 0.00 | 0.00 | 0.00 | 1008.5 | |
| 20260504181403 | 21 | 200 | 6.4 | 19.3 | 0.00 | 0.00 | 0.00 | 1007.8 | |
| 20260504180903 | 21 | 202 | 6.4 | 19.3 | 0.00 | 0.00 | 0.00 | 1008.2 | |
| 20260504180403 | 22 | 195 | 4.8 | 16.1 | 0.00 | 0.00 | 0.00 | 1007.5 | |
| 20260504175903 | 21 | 224 | 6.4 | 20.9 | 0.00 | 0.00 | 0.00 | 1006.8 | |
| 20260504175403 | 21 | 205 | 8.0 | 20.9 | 0.00 | 0.00 | 0.00 | 1007.8 | |
| 20260504174903 | 21 | 202 | 4.8 | 19.3 | 0.00 | 0.00 | 0.00 | 1007.8 | |
| 20260504174403 | 21 | 205 | 11.3 | 19.3 | 0.00 | 0.00 | 0.00 | 1007.8 | |
| 20260504173902 | 21 | 204 | 6.4 | 17.7 | 0.00 | 0.00 | 0.00 | 1007.5 | |
| 20260504173403 | 21 | 212 | 4.8 | 17.7 | 0.00 | 0.00 | 0.00 | 1008.2 | |
| 20260504172904 | 20 | 185 | 9.7 | 16.1 | 0.00 | 0.00 | 0.00 | 1007.8 | |
| 20260504172403 | 21 | 202 | 6.4 | 12.9 | 0.00 | 0.00 | 0.00 | 1007.8 | |
| 20260504171903 | 21 | 217 | 6.4 | 12.9 | 0.00 | 0.00 | 0.00 | 1008.2 | |
| 20260504171402 | 21 | 228 | 4.8 | 19.3 | 0.00 | 0.00 | 0.00 | 1007.8 | |
| 20260504170903 | 20 | 196 | 6.4 | 19.3 | 0.00 | 0.00 | 0.00 | 1007.5 | |
| 20260504170404 | 20 | 199 | 6.4 | 16.1 | 0.00 | 0.00 | 0.00 | 1008.2 | |
| 20260504160403 | 19 | 212 | 4.8 | 11.3 | 0.00 | 0.00 | 0.00 | 1008.5 | |
| 20260504150903 | 17 | 197 | 6.4 | 11.3 | 0.00 | 0.00 | 0.00 | 1008.5 | |
| 20260504150403 | 17 | 200 | 4.8 | 12.9 | 0.00 | 0.00 | 0.00 | 1008.2 | |
| 20260504140903 | 15 | 184 | 4.8 | 16.1 | 0.00 | 0.00 | 0.00 | 1008.5 | |
| 20260504140403 | 15 | 185 | 6.4 | 11.3 | 0.00 | 0.00 | 0.00 | 1008.8 | |
| 20260504130403 | 13 | 184 | 6.4 | 11.3 | 0.00 | 0.00 | 0.00 | 1009.2 | |
| 20260504110403 | 10 | 187 | 4.8 | 8.0 | 0.00 | 0.00 | 0.00 | 1008.8 | |
| 20260504100403 | 10 | 200 | 1.6 | 8.0 | 0.00 | 0.00 | 0.00 | 1009.5 | |
| 20260504081903 | 10 | 197 | 3.2 | 6.4 | 0.00 | 0.00 | 0.00 | 1010.2 | |
| 20260504081403 | 10 | 205 | 1.6 | 8.0 | 0.00 | 0.00 | 0.00 | 1010.5 | |
| 20260504080903 | 11 | 189 | 4.8 | 8.0 | 0.00 | 0.00 | 0.00 | 1010.2 | |
| 20260504080402 | 10 | 189 | 3.2 | 8.0 | 0.00 | 0.00 | 0.00 | 1010.5 | |
| 20260504070403 | 11 | 187 | 4.8 | 11.3 | 0.00 | 0.00 | 0.00 | 1010.9 | |
| 20260504050424 | 11 | 188 | 4.8 | 8.0 | 0.00 | 0.00 | 0.00 | 1011.5 | |
| 20260504045903 | 12 | 193 | 4.8 | 8.0 | 0.00 | 0.00 | 0.00 | 1011.5 | |
| 20260504045403 | 12 | 196 | 4.8 | 8.0 | 0.00 | 0.00 | 0.00 | 1011.5 | |
| 20260504044903 | 12 | 192 | 4.8 | 9.7 | 0.00 | 0.00 | 0.00 | 1011.9 | |
| 20260504044403 | 12 | 192 | 4.8 | 9.7 | 0.00 | 0.00 | 0.00 | 1011.5 | |
| 20260504043903 | 12 | 192 | 3.2 | 9.7 | 0.00 | 0.00 | 0.00 | 1011.5 | |
| 20260504043402 | 12 | 188 | 4.8 | 8.0 | 0.00 | 0.00 | 0.00 | 1011.9 | |
| 20260504042903 | 12 | 191 | 3.2 | 8.0 | 0.00 | 0.00 | 0.00 | 1011.5 | |
| 20260504042402 | 12 | 187 | 4.8 | 11.3 | 0.00 | 0.00 | 0.00 | 1011.9 | |
| 20260504041903 | 12 | 196 | 6.4 | 11.3 | 0.00 | 0.00 | 0.00 | 1011.5 | |
| 20260504041403 | 12 | 190 | 4.8 | 6.4 | 0.00 | 0.00 | 0.00 | 1012.6 | |
| 20260504040903 | 12 | 185 | 3.2 | 6.4 | 0.00 | 0.00 | 0.00 | 1012.2 | |
| 20260504040402 | 12 | 183 | 4.8 | 6.4 | 0.00 | 0.00 | 0.00 | 1012.2 | |
| 20260504035924 | 11 | 186 | 3.2 | 4.8 | 0.00 | 0.00 | 0.00 | 1011.5 | |
| 20260504035403 | 11 | 195 | 3.2 | 4.8 | 0.00 | 0.00 | 0.00 | 1011.9 | |
| 20260504034903 | 11 | 190 | 3.2 | 4.8 | 0.00 | 0.00 | 0.00 | 1012.2 | |
| 20260504034403 | 11 | 184 | 3.2 | 4.8 | 0.00 | 0.00 | 0.00 | 1011.9 | |
| 20260504033903 | 11 | 188 | 3.2 | 4.8 | 0.00 | 0.00 | 0.00 | 1011.9 | |
| 20260504033403 | 11 | 188 | 3.2 | 3.2 | 0.00 | 0.00 | 0.00 | 1011.9 | |
| 20260504032902 | 11 | 186 | 3.2 | 4.8 | 0.00 | 0.00 | 0.00 | 1012.9 | |
| 20260504032403 | 11 | 189 | 3.2 | 4.8 | 0.00 | 0.00 | 0.00 | 1012.2 | |
| 20260504031903 | 11 | 182 | 1.6 | 4.8 | 0.00 | 0.00 | 0.00 | 1012.2 | |
| 20260504031403 | 11 | 200 | 0.0 | 4.8 | 0.00 | 0.00 | 0.00 | 1012.6 | |
| 20260504030903 | 11 | 180 | 0.0 | 3.2 | 0.00 | 0.00 | 0.00 | 1012.6 | |
| 20260504030402 | 11 | 168 | 0.0 | 3.2 | 0.00 | 0.00 | 0.00 | 1012.6 | |
| 20260504025903 | 11 | 169 | 0.0 | 3.2 | 0.00 | 0.00 | 0.00 | 1012.2 | |
| 20260504025403 | 11 | 163 | 0.0 | 3.2 | 0.00 | 0.00 | 0.00 | 1012.6 | |
| 20260504024903 | 11 | 163 | 0.0 | 3.2 | 0.00 | 0.00 | 0.00 | 1012.6 | |
| 20260504024403 | 11 | 161 | 0.0 | 3.2 | 0.00 | 0.00 | 0.00 | 1012.6 | |
| 20260504023902 | 11 | 163 | 0.0 | 1.6 | 0.00 | 0.00 | 0.00 | 1012.9 | |
| 20260504023424 | 11 | 183 | 0.0 | 3.2 | 0.00 | 0.00 | 0.00 | 1012.6 | |
| 20260504022903 | 10 | 161 | 0.0 | 3.2 | 0.00 | 0.00 | 0.00 | 1012.9 | |
| 20260504022403 | 10 | 171 | 0.0 | 4.8 | 0.00 | 0.00 | 0.00 | 1012.9 | |
| 20260504021903 | 10 | 168 | 1.6 | 4.8 | 0.00 | 0.00 | 0.00 | 1012.2 | |
| 20260504021403 | 10 | 157 | 0.0 | 4.8 | 0.00 | 0.00 | 0.00 | 1012.6 | |
| 20260504020903 | 10 | 146 | 0.0 | 11.3 | 0.00 | 0.00 | 0.00 | 1012.6 | |
| 20260504020424 | 10 | 143 | 0.0 | 11.3 | 0.00 | 0.00 | 0.00 | 1012.9 | |
| 20260504015924 | 10 | 135 | 0.0 | 8.0 | 0.00 | 0.00 | 0.00 | 1012.6 | |
| 20260504015424 | 10 | 168 | 0.0 | 4.8 | 0.00 | 0.00 | 0.00 | 1012.2 | |
| 20260504014903 | 10 | 165 | 0.0 | 6.4 | 0.00 | 0.00 | 0.00 | 1012.6 | |
| 20260504013403 | 10 | 138 | 0.0 | 8.0 | 0.00 | 0.00 | 0.00 | 1012.2 | |
| 20260504012924 | 10 | 138 | 0.0 | 3.2 | 0.00 | 0.00 | 0.00 | 1012.6 | |
| 20260504012446 | 10 | 146 | 0.0 | 3.2 | 0.00 | 0.00 | 0.00 | 1012.9 | |
| 20260504011903 | 10 | 140 | 1.6 | 4.8 | 0.00 | 0.00 | 0.00 | 1012.6 | |
| 20260504011403 | 10 | 156 | 3.2 | 4.8 | 0.00 | 0.00 | 0.00 | 1012.6 | |
| 20260504010903 | 10 | 160 | 1.6 | 4.8 | 0.00 | 0.00 | 0.00 | 1012.2 | |
| 20260504010403 | 10 | 158 | 0.0 | 6.4 | 0.00 | 0.00 | 0.00 | 1012.9 | |
| 20260504005903 | 10 | 154 | 0.0 | 6.4 | 0.00 | 0.00 | 0.00 | 1012.6 | |
| 20260504005403 | 10 | 135 | 0.0 | 4.8 | 0.00 | 0.00 | 0.00 | 1012.9 | |
| 20260504004903 | 10 | 157 | 1.6 | 4.8 | 0.00 | 0.00 | 0.00 | 1012.6 | |
| 20260504004403 | 10 | 156 | 0.0 | 6.4 | 0.00 | 0.00 | 0.00 | 1013.2 | |
| 20260504003903 | 10 | 140 | 3.2 | 6.4 | 0.00 | 0.00 | 0.00 | 1013.2 | |
| 20260504003403 | 10 | 146 | 3.2 | 6.4 | 0.00 | 0.00 | 0.00 | 1012.9 | |
| 20260504002903 | 10 | 141 | 3.2 | 6.4 | 0.00 | 0.00 | 0.00 | 1013.2 | |
| 20260504002403 | 10 | 145 | 3.2 | 6.4 | 0.00 | 0.00 | 0.00 | 1012.9 | |
| 20260504001903 | 10 | 142 | 1.6 | 6.4 | 0.00 | 0.00 | 0.00 | 1012.6 | |
| 20260504001403 | 10 | 156 | 3.2 | 4.8 | 0.00 | 0.00 | 0.00 | 1012.9 | |
| 20260504000924 | 10 | 138 | 0.0 | 4.8 | 0.00 | 0.00 | 0.00 | 1013.6 | |
| 20260504000403 | 10 | 119 | 0.0 | 4.8 | 0.00 | 0.00 | 0.00 | 1013.6 | |
| 20260503235903 | 10 | 115 | 0.0 | 4.8 | 0.00 | 0.00 | 0.00 | 1012.6 | |
| 20260503235403 | 10 | 136 | 3.2 | 4.8 | 0.00 | 0.00 | 0.00 | 1012.6 | |
| 20260503234903 | 10 | 153 | 3.2 | 4.8 | 0.00 | 0.00 | 0.00 | 1012.6 | |
| 20260503234404 | 10 | 140 | 3.2 | 4.8 | 0.00 | 0.00 | 0.00 | 1012.6 | |
| 20260503233923 | 10 | 150 | 3.2 | 6.4 | 0.00 | 0.00 | 0.00 | 1012.9 | |
| 20260503233403 | 10 | 149 | 4.8 | 6.4 | 0.00 | 0.00 | 0.00 | 1012.9 | |
| 20260503232902 | 10 | 152 | 3.2 | 6.4 | 0.00 | 0.00 | 0.00 | 1012.2 | |
| 20260503232403 | 10 | 144 | 3.2 | 6.4 | 0.00 | 0.00 | 0.00 | 1012.2 | |
| 20260503231902 | 10 | 150 | 4.8 | 8.0 | 0.00 | 0.00 | 0.00 | 1012.6 | |
| 20260503231403 | 10 | 125 | 3.2 | 8.0 | 0.00 | 0.00 | 0.00 | 1012.6 | |
| 20260503225903 | 10 | 123 | 1.6 | 9.7 | 0.00 | 0.00 | 0.00 | 1013.2 | |
| 20260503225403 | 10 | 137 | 3.2 | 9.7 | 0.00 | 0.00 | 0.00 | 1013.2 | |
| 20260503224945 | 10 | 110 | 3.2 | 11.3 | 0.00 | 0.00 | 0.00 | 1013.2 | |
| 20260503224403 | 10 | 119 | 3.2 | 11.3 | 0.00 | 0.00 | 0.00 | 1013.9 | |
| 20260503223903 | 10 | 147 | 3.2 | 6.4 | 0.00 | 0.00 | 0.00 | 1014.3 | |
| 20260503222903 | 10 | 129 | 3.2 | 9.7 | 0.00 | 0.00 | 0.00 | 1013.6 | |
| 20260503222403 | 10 | 51 | 0.0 | 4.8 | 0.00 | 0.00 | 0.00 | 1013.9 | |
| 20260503221902 | 10 | 81 | 1.6 | 6.4 | 0.00 | 0.00 | 0.00 | 1013.9 | |
| 20260503221403 | 10 | 61 | 4.8 | 6.4 | 0.00 | 0.00 | 0.00 | 1014.3 | |
| 20260503220925 | 10 | 48 | 1.6 | 8.0 | 0.00 | 0.00 | 0.00 | 1014.6 | |
| 20260503220424 | 10 | 56 | 4.8 | 8.0 | 0.00 | 0.00 | 0.00 | 1013.9 | |
| 20260503215924 | 10 | 59 | 3.2 | 6.4 | 0.00 | 0.00 | 0.00 | 1014.6 | |
| 20260503215403 | 10 | 72 | 3.2 | 6.4 | 0.00 | 0.00 | 0.00 | 1013.9 |